,,PA_Meas_PMT16A,,PR_Meas_QMR101_102,,RH_Meas_QMH101,,SR_Meas_QMS101,,TA_Meas_QMH101,,GenWind,,GenWind,
time,status,PA,status,PR,status,RH,status,SR,status,TA,status,DirAvg,status,SpdAvg,
2012-12-14, 00:00:04,VALID,918.529,VALID,0,VALID,86.2208,VALID,0.107441,VALID,20.1139,VALID,138,VALID,0.854688,
2012-12-14, 00:01:04,VALID,918.514,VALID,0,VALID,86.2285,VALID,0,VALID,20.1139,VALID,122,VALID,0.675391,
2012-12-14, 00:02:04,VALID,918.513,VALID,0,VALID,86.6249,VALID,0,VALID,20.1154,VALID,119,VALID,0.497266,
2012-12-14, 00:03:04,VALID,918.522,VALID,0,VALID,87.2957,VALID,0,VALID,20.0163,VALID,119,VALID,0.507813,
2012-12-14, 00:04:04,VALID,918.52,VALID,0,VALID,87.6312,VALID,0,VALID,19.8993,VALID,119,VALID,0.6125,
2012-12-14, 00:05:04,VALID,918.529,VALID,0,VALID,87.9209,VALID,0,VALID,19.8018,VALID,119,VALID,0.516797,
2012-12-14, 00:06:04,VALID,918.532,VALID,0,VALID,88.3097,VALID,0,VALID,19.7823,VALID,119,VALID,0.642187,
2012-12-14, 00:07:04,VALID,918.54,VALID,0,VALID,88.6146,VALID,0,VALID,19.7043,VALID,94,VALID,0.886328,
2012-12-14, 00:08:04,VALID,918.485,VALID,0,VALID,88.7366,VALID,0,VALID,19.6653,VALID,94,VALID,0.908594,
2012-12-14, 00:09:04,VALID,918.486,VALID,0,VALID,88.8128,VALID,0,VALID,19.6653,VALID,94,VALID,0.728125,
2012-12-14, 00:10:04,VALID,918.492,VALID,0,VALID,88.8509,VALID,0,VALID,19.6668,VALID,94,VALID,0.56875,
2012-12-14, 00:11:04,VALID,918.521,VALID,0,VALID,88.889,VALID,0,VALID,19.6458,VALID,94,VALID,0.796484,
2012-12-14, 00:12:04,VALID,918.477,VALID,0,VALID,89.0491,VALID,0,VALID,19.6068,VALID,94,VALID,0.768359,
2012-12-14, 00:13:04,VALID,918.494,VALID,0,VALID,89.1406,VALID,0,VALID,19.5678,VALID,94,VALID,0.892969,
2012-12-14, 00:14:04,VALID,918.467,VALID,0,VALID,89.1711,VALID,0,VALID,19.5693,VALID,94,VALID,0.915625,
2012-12-14, 00:15:04,VALID,918.459,VALID,0,VALID,89.1406,VALID,0,VALID,19.5693,VALID,94,VALID,0.91875,
2012-12-14, 00:16:04,VALID,918.467,VALID,0,VALID,89.0949,VALID,0,VALID,19.5693,VALID,94,VALID,0.901172,
2012-12-14, 00:17:04,VALID,918.48,VALID,0,VALID,89.0186,VALID,0,VALID,19.5093,VALID,112,VALID,0.844531,
2012-12-14, 00:18:04,VALID,918.44,VALID,0,VALID,89.2016,VALID,0,VALID,19.4898,VALID,94,VALID,0.629687,
2012-12-14, 00:19:04,VALID,918.464,VALID,0,VALID,89.4303,VALID,0,VALID,19.4313,VALID,94,VALID,0.651563,
2012-12-14, 00:20:04,VALID,918.403,VALID,0,VALID,89.5828,VALID,0,VALID,19.3923,VALID,97,VALID,0.727734,
2012-12-14, 00:21:04,VALID,918.418,VALID,0,VALID,89.6209,VALID,0,VALID,19.3923,VALID,110,VALID,0.605859,
2012-12-14, 00:22:04,VALID,918.428,VALID,0,VALID,89.5523,VALID,0,VALID,19.4118,VALID,110,VALID,0.184766,
2012-12-14, 00:23:04,VALID,918.419,VALID,0,VALID,89.598,VALID,0,VALID,19.3923,VALID,111,VALID,0.329688,
2012-12-14, 00:24:04,VALID,918.389,VALID,0,VALID,89.7962,VALID,0,VALID,19.3923,VALID,111,VALID,0.577344,
2012-12-14, 00:25:04,VALID,918.393,VALID,0,VALID,89.9029,VALID,0,VALID,19.3923,VALID,111,VALID,0.9375,
2012-12-14, 00:26:04,VALID,918.391,VALID,0,VALID,89.7657,VALID,0,VALID,19.4118,VALID,124,VALID,0.877344,
2012-12-14, 00:27:04,VALID,918.427,VALID,0,VALID,89.7047,VALID,0,VALID,19.4313,VALID,124,VALID,0.199219,
2012-12-14, 00:28:04,VALID,918.382,VALID,0,VALID,89.8267,VALID,0,VALID,19.4313,VALID,124,VALID,0.428906,
2012-12-14, 00:29:04,VALID,918.393,VALID,0,VALID,89.8648,VALID,0,VALID,19.4118,VALID,124,VALID,0.285156,
2012-12-14, 00:30:04,VALID,918.443,VALID,0,VALID,90.0249,VALID,0,VALID,19.3937,VALID,124,VALID,0.669922,
2012-12-14, 00:31:04,VALID,918.447,VALID,0,VALID,90.1393,VALID,0,VALID,19.3742,VALID,124,VALID,0.770703,
2012-12-14, 00:32:04,VALID,918.438,VALID,0,VALID,90.1698,VALID,0,VALID,19.3742,VALID,124,VALID,0.657812,
2012-12-14, 00:33:04,VALID,918.436,VALID,0,VALID,90.2308,VALID,0.107441,VALID,19.3937,VALID,124,VALID,0.552734,
2012-12-14, 00:34:04,VALID,918.443,VALID,0,VALID,90.2079,VALID,0,VALID,19.3742,VALID,124,VALID,0.616016,
2012-12-14, 00:35:04,VALID,918.433,VALID,0,VALID,90.1545,VALID,0,VALID,19.3547,VALID,124,VALID,0.842969,
2012-12-14, 00:36:04,VALID,918.434,VALID,0,VALID,90.2994,VALID,0,VALID,19.2753,VALID,124,VALID,0.680859,
2012-12-14, 00:37:04,VALID,918.401,VALID,0,VALID,90.6119,VALID,0,VALID,19.2377,VALID,154,VALID,0.871875,
2012-12-14, 00:38:04,VALID,918.389,VALID,0,VALID,90.9626,VALID,0,VALID,19.1597,VALID,154,VALID,0.891016,
2012-12-14, 00:39:04,VALID,918.406,VALID,0,VALID,91.3895,VALID,0,VALID,19.0803,VALID,154,VALID,0.850781,
2012-12-14, 00:40:04,VALID,918.413,VALID,0,VALID,91.5953,VALID,0,VALID,19.1597,VALID,154,VALID,0.644531,
2012-12-14, 00:41:04,VALID,918.434,VALID,0,VALID,91.4048,VALID,0,VALID,19.1987,VALID,153,VALID,0.377734,
2012-12-14, 00:42:04,VALID,918.443,VALID,0,VALID,91.1761,VALID,0,VALID,19.1583,VALID,153,VALID,0.428125,
2012-12-14, 00:43:04,VALID,918.48,VALID,0,VALID,90.9778,VALID,0,VALID,19.1792,VALID,138,VALID,0.541016,
2012-12-14, 00:44:04,VALID,918.461,VALID,0,VALID,90.9931,VALID,0,VALID,19.0998,VALID,138,VALID,0.717578,
2012-12-14, 00:45:04,VALID,918.446,VALID,0,VALID,91.1837,VALID,0,VALID,19.0817,VALID,142,VALID,0.668359,
2012-12-14, 00:46:04,VALID,918.433,VALID,0,VALID,91.3285,VALID,0,VALID,19.0413,VALID,150,VALID,0.575391,
2012-12-14, 00:47:04,VALID,918.415,VALID,0,VALID,91.4352,VALID,0,VALID,19.0218,VALID,167,VALID,0.108203,
2012-12-14, 00:48:04,VALID,918.405,VALID,0,VALID,91.5725,VALID,0,VALID,19.0037,VALID,159,VALID,0.708203,
2012-12-14, 00:49:04,VALID,918.397,VALID,0,VALID,91.7402,VALID,0,VALID,18.9842,VALID,161,VALID,0.319922,
2012-12-14, 00:50:04,VALID,918.345,VALID,0,VALID,91.8927,VALID,0,VALID,18.9452,VALID,138,VALID,0.725,
2012-12-14, 00:51:04,VALID,918.364,VALID,0,VALID,92.0223,VALID,0,VALID,18.9243,VALID,130,VALID,0.457422,
2012-12-14, 00:52:04,VALID,918.326,VALID,0,VALID,92.3958,VALID,0,VALID,18.9062,VALID,142,VALID,0.664844,
2012-12-14, 00:53:04,VALID,918.318,VALID,0,VALID,92.7389,VALID,0,VALID,18.9048,VALID,140,VALID,0.978125,
2012-12-14, 00:54:04,VALID,918.275,VALID,0,VALID,92.7846,VALID,0,VALID,18.9257,VALID,136,VALID,0.825391,
2012-12-14, 00:55:04,VALID,918.257,VALID,0,VALID,92.7007,VALID,0,VALID,18.9048,VALID,129,VALID,0.765234,
2012-12-14, 00:56:04,VALID,918.272,VALID,0,VALID,92.4797,VALID,0,VALID,18.8867,VALID,125,VALID,0.688281,
2012-12-14, 00:57:04,VALID,918.238,VALID,0,VALID,92.1823,VALID,0,VALID,18.7488,VALID,125,VALID,1.02383,
2012-12-14, 00:58:04,VALID,918.238,VALID,0,VALID,92.5254,VALID,0,VALID,18.6513,VALID,125,VALID,0.975391,
2012-12-14, 00:59:04,VALID,918.207,VALID,0,VALID,92.9981,VALID,0,VALID,18.5943,VALID,111,VALID,0.930078,
2012-12-14, 01:00:04,VALID,918.224,VALID,0,VALID,93.4936,VALID,0,VALID,18.5344,VALID,89,VALID,0.9875,
2012-12-14, 01:01:04,VALID,918.185,VALID,0,VALID,93.7528,VALID,0,VALID,18.5358,VALID,89,VALID,0.880859,
2012-12-14, 01:02:04,VALID,918.199,VALID,0,VALID,93.8824,VALID,0,VALID,18.5553,VALID,89,VALID,0.96875,
2012-12-14, 01:03:04,VALID,918.17,VALID,0,VALID,93.9891,VALID,0,VALID,18.5943,VALID,89,VALID,0.976172,
2012-12-14, 01:04:04,VALID,918.131,VALID,0,VALID,93.89,VALID,0,VALID,18.6333,VALID,89,VALID,0.653906,
2012-12-14, 01:05:04,VALID,918.119,VALID,0,VALID,93.7604,VALID,0,VALID,18.6528,VALID,100,VALID,0.611328,
2012-12-14, 01:06:04,VALID,918.115,VALID,0,VALID,93.5546,VALID,0,VALID,18.7113,VALID,100,VALID,0.578516,
2012-12-14, 01:07:04,VALID,918.125,VALID,0,VALID,93.2801,VALID,0,VALID,18.7113,VALID,100,VALID,0.594531,
2012-12-14, 01:08:04,VALID,918.079,VALID,0,VALID,93.181,VALID,0,VALID,18.7293,VALID,100,VALID,0.628125,
2012-12-14, 01:09:04,VALID,918.079,VALID,0,VALID,93.0743,VALID,0,VALID,18.7293,VALID,100,VALID,0.724219,
2012-12-14, 01:10:04,VALID,918.047,VALID,0,VALID,92.8532,VALID,0,VALID,18.7697,VALID,115,VALID,0.612109,
2012-12-14, 01:11:04,VALID,918.039,VALID,0,VALID,92.7541,VALID,0,VALID,18.7293,VALID,115,VALID,0.647266,
2012-12-14, 01:12:04,VALID,917.996,VALID,0,VALID,92.7007,VALID,0,VALID,18.7113,VALID,115,VALID,0.776172,
2012-12-14, 01:13:04,VALID,917.955,VALID,0,VALID,92.7693,VALID,0,VALID,18.6918,VALID,115,VALID,0.912109,
2012-12-14, 01:14:04,VALID,917.942,VALID,0,VALID,92.777,VALID,0,VALID,18.7113,VALID,115,VALID,0.768359,
2012-12-14, 01:15:04,VALID,917.91,VALID,0,VALID,92.7541,VALID,0,VALID,18.7697,VALID,115,VALID,0.848047,
2012-12-14, 01:16:04,VALID,917.889,VALID,0,VALID,92.3806,VALID,0,VALID,18.7697,VALID,115,VALID,0.875781,
2012-12-14, 01:17:04,VALID,917.841,VALID,0,VALID,92.2128,VALID,0,VALID,18.7697,VALID,115,VALID,0.755469,
2012-12-14, 01:18:04,VALID,917.822,VALID,0,VALID,92.1671,VALID,0,VALID,18.7892,VALID,115,VALID,0.745703,
2012-12-14, 01:19:04,VALID,917.772,VALID,0,VALID,92.0604,VALID,0,VALID,18.7892,VALID,115,VALID,0.830078,
2012-12-14, 01:20:04,VALID,917.776,VALID,0,VALID,91.7097,VALID,0,VALID,18.7503,VALID,115,VALID,0.509375,
2012-12-14, 01:21:04,VALID,917.707,VALID,0,VALID,91.7173,VALID,0,VALID,18.6918,VALID,115,VALID,0.388672,
2012-12-14, 01:22:04,VALID,917.714,VALID,0,VALID,92.2433,VALID,0,VALID,18.6319,VALID,115,VALID,0.546094,
2012-12-14, 01:23:04,VALID,917.658,VALID,0,VALID,92.7007,VALID,0,VALID,18.6723,VALID,115,VALID,1.06406,
2012-12-14, 01:24:04,VALID,917.646,VALID,0,VALID,92.6321,VALID,0,VALID,18.8087,VALID,115,VALID,1.2543,
2012-12-14, 01:25:04,VALID,917.63,VALID,0,VALID,91.946,VALID,0,VALID,18.9257,VALID,115,VALID,0.864844,
2012-12-14, 01:26:04,VALID,917.627,VALID,0,VALID,90.3451,VALID,0,VALID,18.9272,VALID,56,VALID,0.725391,
2012-12-14, 01:27:04,VALID,917.596,VALID,0,VALID,90.5281,VALID,0,VALID,18.7892,VALID,56,VALID,0,
2012-12-14, 01:28:04,VALID,917.597,VALID,0,VALID,91.0465,VALID,0,VALID,18.7308,VALID,56,VALID,0,
2012-12-14, 01:29:04,VALID,917.56,VALID,0,VALID,91.4505,VALID,0,VALID,18.6723,VALID,56,VALID,0,
2012-12-14, 01:30:04,VALID,917.53,VALID,0,VALID,91.7554,VALID,0,VALID,18.5929,VALID,56,VALID,0.0300781,
2012-12-14, 01:31:04,VALID,917.52,VALID,0,VALID,91.8774,VALID,0,VALID,18.5943,VALID,56,VALID,0.090625,
2012-12-14, 01:32:04,VALID,917.519,VALID,0,VALID,92.0909,VALID,0,VALID,18.5358,VALID,56,VALID,0.0695312,
2012-12-14, 01:33:04,VALID,917.513,VALID,0,VALID,92.2281,VALID,0,VALID,18.4773,VALID,56,VALID,0.00664063,
2012-12-14, 01:34:04,VALID,917.482,VALID,0,VALID,92.4568,VALID,0,VALID,18.4578,VALID,56,VALID,0,
2012-12-14, 01:35:04,VALID,917.492,VALID,0,VALID,92.716,VALID,0,VALID,18.4383,VALID,56,VALID,0,
2012-12-14, 01:36:04,VALID,917.455,VALID,0,VALID,92.9294,VALID,0,VALID,18.4369,VALID,56,VALID,0,
2012-12-14, 01:37:04,VALID,917.42,VALID,0,VALID,92.411,VALID,0,VALID,18.4188,VALID,56,VALID,0,
2012-12-14, 01:38:04,VALID,917.444,VALID,0,VALID,91.9765,VALID,0,VALID,18.3408,VALID,56,VALID,0,
2012-12-14, 01:39:04,VALID,917.437,VALID,0,VALID,92.5559,VALID,0,VALID,18.2823,VALID,56,VALID,0,
2012-12-14, 01:40:04,VALID,917.383,VALID,0,VALID,93.2268,VALID,0,VALID,18.2628,VALID,56,VALID,0,
2012-12-14, 01:41:04,VALID,917.384,VALID,0,VALID,93.7528,VALID,0,VALID,18.2628,VALID,56,VALID,0,
2012-12-14, 01:42:04,VALID,917.34,VALID,0,VALID,94.1111,VALID,0,VALID,18.3422,VALID,56,VALID,0,
2012-12-14, 01:43:04,VALID,917.345,VALID,0,VALID,94.2559,VALID,0,VALID,18.3408,VALID,56,VALID,0,
2012-12-14, 01:44:04,VALID,917.336,VALID,0,VALID,94.3321,VALID,0,VALID,18.3784,VALID,56,VALID,0.230859,
2012-12-14, 01:45:04,VALID,917.306,VALID,0,VALID,94.4236,VALID,0,VALID,18.4773,VALID,56,VALID,0.326562,
2012-12-14, 01:46:04,VALID,917.298,VALID,0,VALID,94.3169,VALID,0,VALID,18.4954,VALID,56,VALID,0.508594,
2012-12-14, 01:47:04,VALID,917.294,VALID,0,VALID,94.1263,VALID,0,VALID,18.5344,VALID,56,VALID,0.673828,
2012-12-14, 01:48:04,VALID,917.278,VALID,0,VALID,93.8138,VALID,0,VALID,18.5748,VALID,93,VALID,0.641406,
2012-12-14, 01:49:04,VALID,917.289,VALID,0,VALID,93.6384,VALID,0,VALID,18.5539,VALID,94,VALID,0.398047,
2012-12-14, 01:50:04,VALID,917.276,VALID,0,VALID,93.5622,VALID,0.107441,VALID,18.5539,VALID,94,VALID,0.0769531,
2012-12-14, 01:51:04,VALID,917.299,VALID,0,VALID,93.3411,VALID,0,VALID,18.5344,VALID,93,VALID,0.172656,
2012-12-14, 01:52:04,VALID,917.307,VALID,0,VALID,93.2649,VALID,0,VALID,18.5149,VALID,94,VALID,0.365625,
2012-12-14, 01:53:04,VALID,917.276,VALID,0,VALID,93.1658,VALID,0,VALID,18.4954,VALID,94,VALID,0.440625,
2012-12-14, 01:54:04,VALID,917.304,VALID,0,VALID,93.3106,VALID,0,VALID,18.5149,VALID,94,VALID,0.775781,
2012-12-14, 01:55:04,VALID,917.259,VALID,0,VALID,93.2268,VALID,0,VALID,18.5929,VALID,94,VALID,0.798047,
2012-12-14, 01:56:04,VALID,917.266,VALID,0,VALID,92.9523,VALID,0,VALID,18.6513,VALID,94,VALID,0.776172,
2012-12-14, 01:57:04,VALID,917.221,VALID,0,VALID,92.6245,VALID,0,VALID,18.7308,VALID,100,VALID,0.875,
2012-12-14, 01:58:04,VALID,917.19,VALID,0,VALID,92.2052,VALID,0,VALID,18.7892,VALID,118,VALID,0.714453,
2012-12-14, 01:59:04,VALID,917.16,VALID,0,VALID,91.7554,VALID,0,VALID,18.8297,VALID,117,VALID,0.408984,
2012-12-14, 02:00:04,VALID,917.16,VALID,0,VALID,91.542,VALID,0,VALID,18.7683,VALID,117,VALID,0.626562,
2012-12-14, 02:01:04,VALID,917.127,VALID,0,VALID,91.4276,VALID,0,VALID,18.7697,VALID,117,VALID,0.844922,
2012-12-14, 02:02:04,VALID,917.11,VALID,0,VALID,91.3819,VALID,0,VALID,18.8102,VALID,131,VALID,1.14961,
2012-12-14, 02:03:04,VALID,917.103,VALID,0,VALID,91.0998,VALID,0,VALID,18.8672,VALID,131,VALID,1.11992,
2012-12-14, 02:04:04,VALID,917.099,VALID,0,VALID,90.8483,VALID,0,VALID,18.9257,VALID,128,VALID,0.717969,
2012-12-14, 02:05:04,VALID,917.094,VALID,0,VALID,90.4595,VALID,0,VALID,18.9467,VALID,128,VALID,0.468359,
2012-12-14, 02:06:04,VALID,917.122,VALID,0,VALID,90.3756,VALID,0,VALID,18.8672,VALID,128,VALID,0.355078,
2012-12-14, 02:07:04,VALID,917.145,VALID,0,VALID,90.7644,VALID,0,VALID,18.7892,VALID,127,VALID,0.912109,
2012-12-14, 02:08:04,VALID,917.128,VALID,0,VALID,91.3438,VALID,0,VALID,18.6723,VALID,119,VALID,0.765625,
2012-12-14, 02:09:04,VALID,917.128,VALID,0,VALID,92.0909,VALID,0,VALID,18.5748,VALID,122,VALID,1.07031,
2012-12-14, 02:10:04,VALID,917.138,VALID,0,VALID,92.8303,VALID,0,VALID,18.4773,VALID,130,VALID,0.840625,
2012-12-14, 02:11:04,VALID,917.141,VALID,0,VALID,92.8837,VALID,0,VALID,18.3993,VALID,118,VALID,0.861328,
2012-12-14, 02:12:04,VALID,917.102,VALID,0,VALID,93.12,VALID,0,VALID,18.2615,VALID,116,VALID,0.862891,
2012-12-14, 02:13:04,VALID,917.112,VALID,0,VALID,93.4783,VALID,0,VALID,18.2447,VALID,96,VALID,1.11641,
2012-12-14, 02:14:04,VALID,917.113,VALID,0,VALID,93.7147,VALID,0,VALID,18.1667,VALID,96,VALID,1.10938,
2012-12-14, 02:15:04,VALID,917.088,VALID,0,VALID,94.1949,VALID,0,VALID,18.1667,VALID,103,VALID,1.06914,
2012-12-14, 02:16:04,VALID,917.034,VALID,0,VALID,94.3474,VALID,0,VALID,18.1278,VALID,107,VALID,1.00195,
2012-12-14, 02:17:04,VALID,917.013,VALID,0,VALID,94.4236,VALID,0,VALID,18.1083,VALID,96,VALID,1.38594,
2012-12-14, 02:18:04,VALID,917.003,VALID,0,VALID,94.4008,VALID,0,VALID,18.0289,VALID,97,VALID,0.91875,
2012-12-14, 02:19:04,VALID,916.95,VALID,0,VALID,94.599,VALID,0,VALID,17.9899,VALID,96,VALID,1.14375,
2012-12-14, 02:20:04,VALID,916.977,VALID,0,VALID,94.82,VALID,0,VALID,17.9509,VALID,104,VALID,1.35938,
2012-12-14, 02:21:04,VALID,916.953,VALID,0,VALID,95.0411,VALID,0,VALID,17.9133,VALID,106,VALID,1.16914,
2012-12-14, 02:22:04,VALID,916.946,VALID,0,VALID,95.3079,VALID,0,VALID,17.8521,VALID,117,VALID,0.894531,
2012-12-14, 02:23:04,VALID,916.921,VALID,0,VALID,95.4833,VALID,0,VALID,17.8938,VALID,104,VALID,0.760938,
2012-12-14, 02:24:04,VALID,916.908,VALID,0,VALID,95.5367,VALID,0,VALID,17.8535,VALID,89,VALID,0.999609,
2012-12-14, 02:25:04,VALID,916.959,VALID,0,VALID,95.4757,VALID,0,VALID,17.8158,VALID,89,VALID,1.03711,
2012-12-14, 02:26:04,VALID,916.949,VALID,0,VALID,95.5671,VALID,0,VALID,17.756,VALID,89,VALID,1.08633,
2012-12-14, 02:27:04,VALID,916.987,VALID,0,VALID,95.773,VALID,0,VALID,17.756,VALID,89,VALID,1.10625,
2012-12-14, 02:28:04,VALID,917.014,VALID,0,VALID,95.9636,VALID,0,VALID,17.7755,VALID,91,VALID,0.797266,
2012-12-14, 02:29:04,VALID,916.993,VALID,0,VALID,96.0627,VALID,0.107441,VALID,17.7547,VALID,91,VALID,0.465625,
2012-12-14, 02:30:04,VALID,916.977,VALID,0,VALID,96.2228,VALID,0,VALID,17.7936,VALID,91,VALID,0.807422,
2012-12-14, 02:31:04,VALID,916.997,VALID,0,VALID,96.3905,VALID,0,VALID,17.8716,VALID,115,VALID,1.0668,
2012-12-14, 02:32:04,VALID,916.971,VALID,0,VALID,96.421,VALID,0,VALID,17.9301,VALID,124,VALID,1.17305,
2012-12-14, 02:33:04,VALID,916.974,VALID,0,VALID,96.3524,VALID,0.107441,VALID,17.9886,VALID,124,VALID,0.958203,
2012-12-14, 02:34:04,VALID,916.966,VALID,0,VALID,96.2304,VALID,0,VALID,18.0289,VALID,124,VALID,0.716016,
2012-12-14, 02:35:04,VALID,916.994,VALID,0,VALID,96.1465,VALID,0,VALID,18.0484,VALID,124,VALID,0.767578,
2012-12-14, 02:36:04,VALID,916.975,VALID,0,VALID,96.0169,VALID,0,VALID,18.0679,VALID,124,VALID,0.672656,
2012-12-14, 02:37:04,VALID,916.974,VALID,0,VALID,95.9712,VALID,0,VALID,18.0665,VALID,124,VALID,0.594141,
2012-12-14, 02:38:04,VALID,916.98,VALID,0,VALID,95.8721,VALID,0,VALID,18.0484,VALID,124,VALID,0.625781,
2012-12-14, 02:39:04,VALID,916.97,VALID,0,VALID,95.8263,VALID,0,VALID,18.0275,VALID,124,VALID,0.592188,
2012-12-14, 02:40:04,VALID,916.945,VALID,0,VALID,95.773,VALID,0,VALID,18.0679,VALID,124,VALID,0.579687,
2012-12-14, 02:41:04,VALID,916.936,VALID,0,VALID,95.7577,VALID,0,VALID,18.0665,VALID,124,VALID,0.662891,
2012-12-14, 02:42:04,VALID,916.922,VALID,0,VALID,95.6739,VALID,0,VALID,18.0874,VALID,124,VALID,0.423047,
2012-12-14, 02:43:04,VALID,916.905,VALID,0,VALID,95.6586,VALID,0,VALID,18.1055,VALID,124,VALID,0.542188,
2012-12-14, 02:44:04,VALID,916.889,VALID,0,VALID,95.5214,VALID,0,VALID,18.125,VALID,124,VALID,0.570313,
2012-12-14, 02:45:04,VALID,916.916,VALID,0,VALID,95.3003,VALID,0,VALID,18.1055,VALID,124,VALID,0.653906,
2012-12-14, 02:46:04,VALID,916.924,VALID,0,VALID,95.1783,VALID,0,VALID,18.1069,VALID,119,VALID,0.552734,
2012-12-14, 02:47:04,VALID,916.886,VALID,0,VALID,95.125,VALID,0,VALID,18.0874,VALID,119,VALID,0.535937,
2012-12-14, 02:48:04,VALID,916.867,VALID,0,VALID,95.1479,VALID,0,VALID,18.0665,VALID,119,VALID,0.605859,
2012-12-14, 02:49:04,VALID,916.894,VALID,0,VALID,95.064,VALID,0,VALID,18.0679,VALID,119,VALID,0.575781,
2012-12-14, 02:50:04,VALID,916.89,VALID,0,VALID,94.7362,VALID,0,VALID,17.9899,VALID,119,VALID,0.375781,
2012-12-14, 02:51:04,VALID,916.864,VALID,0,VALID,94.8505,VALID,0,VALID,17.9496,VALID,119,VALID,0,
2012-12-14, 02:52:04,VALID,916.858,VALID,0,VALID,94.9801,VALID,0.107441,VALID,17.9301,VALID,119,VALID,0,
2012-12-14, 02:53:04,VALID,916.874,VALID,0,VALID,95.1402,VALID,0,VALID,17.9301,VALID,119,VALID,0,
2012-12-14, 02:54:04,VALID,916.891,VALID,0,VALID,95.2012,VALID,0,VALID,17.9496,VALID,119,VALID,0,
2012-12-14, 02:55:04,VALID,916.871,VALID,0,VALID,95.1783,VALID,0,VALID,17.9106,VALID,119,VALID,0,
2012-12-14, 02:56:04,VALID,916.87,VALID,0,VALID,94.8124,VALID,0,VALID,17.8925,VALID,119,VALID,0,
2012-12-14, 02:57:04,VALID,916.856,VALID,0,VALID,94.5913,VALID,0.107441,VALID,17.8145,VALID,119,VALID,0,
2012-12-14, 02:58:04,VALID,916.862,VALID,0,VALID,94.4008,VALID,0,VALID,17.756,VALID,119,VALID,0,
2012-12-14, 02:59:04,VALID,916.856,VALID,0,VALID,94.3245,VALID,0,VALID,17.6989,VALID,119,VALID,0,
2012-12-14, 03:00:04,VALID,916.848,VALID,0,VALID,94.6371,VALID,0,VALID,17.6391,VALID,119,VALID,0,
2012-12-14, 03:01:04,VALID,916.831,VALID,0,VALID,95.1174,VALID,0,VALID,17.6794,VALID,119,VALID,0,
2012-12-14, 03:02:04,VALID,916.805,VALID,0,VALID,95.5062,VALID,0,VALID,17.6975,VALID,119,VALID,0,
2012-12-14, 03:03:04,VALID,916.794,VALID,0,VALID,95.7425,VALID,0,VALID,17.7352,VALID,113,VALID,0,
2012-12-14, 03:04:04,VALID,916.781,VALID,0,VALID,95.8873,VALID,0,VALID,17.834,VALID,108,VALID,0,
2012-12-14, 03:05:04,VALID,916.778,VALID,0,VALID,95.8187,VALID,0,VALID,17.8938,VALID,108,VALID,0,
2012-12-14, 03:06:04,VALID,916.775,VALID,0,VALID,95.773,VALID,0,VALID,17.9133,VALID,104,VALID,0,
2012-12-14, 03:07:04,VALID,916.75,VALID,0,VALID,95.5214,VALID,0,VALID,17.9314,VALID,101,VALID,0,
2012-12-14, 03:08:04,VALID,916.774,VALID,0,VALID,95.2927,VALID,0,VALID,17.9704,VALID,101,VALID,0,
2012-12-14, 03:09:04,VALID,916.733,VALID,0,VALID,95.0259,VALID,0,VALID,18.0289,VALID,101,VALID,0.299609,
2012-12-14, 03:10:04,VALID,916.741,VALID,0,VALID,94.6295,VALID,0,VALID,18.1472,VALID,90,VALID,0.803516,
2012-12-14, 03:11:04,VALID,916.753,VALID,0,VALID,93.8976,VALID,0,VALID,18.1862,VALID,96,VALID,0.660937,
2012-12-14, 03:12:04,VALID,916.745,VALID,0,VALID,93.6537,VALID,0,VALID,18.2433,VALID,98,VALID,0.722266,
2012-12-14, 03:13:04,VALID,916.71,VALID,0,VALID,93.1734,VALID,0,VALID,18.3018,VALID,98,VALID,0,
2012-12-14, 03:14:04,VALID,916.697,VALID,0,VALID,92.9066,VALID,0,VALID,18.3603,VALID,98,VALID,0,
2012-12-14, 03:15:04,VALID,916.692,VALID,0,VALID,92.4568,VALID,0,VALID,18.3798,VALID,98,VALID,0,
2012-12-14, 03:16:04,VALID,916.672,VALID,0,VALID,92.3577,VALID,0,VALID,18.4592,VALID,101,VALID,0.647266,
2012-12-14, 03:17:04,VALID,916.658,VALID,0,VALID,91.6106,VALID,0,VALID,18.5372,VALID,92,VALID,0.920703,
2012-12-14, 03:18:04,VALID,916.683,VALID,0,VALID,91.0922,VALID,0,VALID,18.5358,VALID,91,VALID,0.657031,
2012-12-14, 03:19:04,VALID,916.624,VALID,0,VALID,91.2523,VALID,0,VALID,18.5957,VALID,91,VALID,0.727344,
2012-12-14, 03:20:04,VALID,916.684,VALID,0,VALID,91.298,VALID,0,VALID,18.6347,VALID,112,VALID,0.970703,
2012-12-14, 03:21:04,VALID,916.669,VALID,0,VALID,91.0922,VALID,0,VALID,18.6347,VALID,112,VALID,0.940234,
2012-12-14, 03:22:04,VALID,916.662,VALID,0,VALID,90.9931,VALID,0,VALID,18.6124,VALID,127,VALID,1.00977,
2012-12-14, 03:23:04,VALID,916.674,VALID,0,VALID,90.955,VALID,0,VALID,18.6138,VALID,127,VALID,0.615625,
2012-12-14, 03:24:04,VALID,916.677,VALID,0,VALID,91.0846,VALID,0,VALID,18.5762,VALID,127,VALID,0.414844,
2012-12-14, 03:25:04,VALID,916.705,VALID,0,VALID,91.1303,VALID,0,VALID,18.5177,VALID,127,VALID,0.0570313,
2012-12-14, 03:26:04,VALID,916.693,VALID,0,VALID,91.2218,VALID,0,VALID,18.4188,VALID,127,VALID,0.119141,
2012-12-14, 03:27:04,VALID,916.713,VALID,0,VALID,91.4124,VALID,0,VALID,18.3227,VALID,127,VALID,0.447266,
2012-12-14, 03:28:04,VALID,916.683,VALID,0,VALID,91.9918,VALID,0,VALID,18.2642,VALID,127,VALID,0.685547,
2012-12-14, 03:29:04,VALID,916.714,VALID,0,VALID,92.4568,VALID,0,VALID,18.1849,VALID,127,VALID,0.396094,
2012-12-14, 03:30:04,VALID,916.653,VALID,0,VALID,92.8227,VALID,0,VALID,18.1459,VALID,157,VALID,0.919531,
2012-12-14, 03:31:04,VALID,916.659,VALID,0,VALID,92.9904,VALID,0,VALID,18.1472,VALID,157,VALID,0.501172,
2012-12-14, 03:32:04,VALID,916.639,VALID,0,VALID,92.9371,VALID,0,VALID,18.0874,VALID,156,VALID,0.228125,
2012-12-14, 03:33:04,VALID,916.616,VALID,0,VALID,93.1505,VALID,0,VALID,18.0679,VALID,157,VALID,0.119531,
2012-12-14, 03:34:04,VALID,916.582,VALID,0,VALID,93.1963,VALID,0,VALID,18.0484,VALID,157,VALID,0,
2012-12-14, 03:35:04,VALID,916.547,VALID,0,VALID,93.2191,VALID,0,VALID,18.0108,VALID,157,VALID,0,
2012-12-14, 03:36:04,VALID,916.543,VALID,0,VALID,93.4555,VALID,0,VALID,17.9913,VALID,156,VALID,0.344141,
2012-12-14, 03:37:04,VALID,916.52,VALID,0,VALID,93.6842,VALID,0,VALID,17.9913,VALID,156,VALID,0.619531,
2012-12-14, 03:38:04,VALID,916.497,VALID,0,VALID,93.89,VALID,0,VALID,17.9509,VALID,155,VALID,0.813672,
2012-12-14, 03:39:04,VALID,916.504,VALID,0,VALID,93.9357,VALID,0,VALID,17.9899,VALID,153,VALID,0.444141,
2012-12-14, 03:40:04,VALID,916.5,VALID,0,VALID,93.9434,VALID,0,VALID,18.0094,VALID,139,VALID,0.747266,
2012-12-14, 03:41:04,VALID,916.5,VALID,0,VALID,93.9357,VALID,0,VALID,18.0484,VALID,139,VALID,0.875781,
2012-12-14, 03:42:04,VALID,916.512,VALID,0,VALID,93.9281,VALID,0,VALID,18.0888,VALID,131,VALID,0.958984,
2012-12-14, 03:43:04,VALID,916.525,VALID,0,VALID,93.9738,VALID,0,VALID,18.1083,VALID,120,VALID,1.03164,
2012-12-14, 03:44:04,VALID,916.499,VALID,0,VALID,93.8976,VALID,0,VALID,18.1472,VALID,117,VALID,1.25273,
2012-12-14, 03:45:04,VALID,916.501,VALID,0,VALID,93.7833,VALID,0,VALID,18.1264,VALID,123,VALID,1.20898,
2012-12-14, 03:46:04,VALID,916.481,VALID,0,VALID,93.7223,VALID,0,VALID,18.1849,VALID,131,VALID,1.47656,
2012-12-14, 03:47:04,VALID,916.5,VALID,0,VALID,93.4707,VALID,0,VALID,18.2447,VALID,120,VALID,1.325,